KD4TJG Weather Reports


Display with metric or nautical units.
time (UTC)temp
F
wind
direction
speed
MPH
gust
MPH
rain 1hr
in
rain 24hr
in
rain mn
in
humidity
%
barometer
mb
20260902024023 74 0 0.0 1.0 0.00 0.00 0.00 86 1018.1
20260902023855 75 181 0.0 0.0 0.00 0.00 0.00 86 1020.2
20260902023524 74 0 0.0 1.0 0.00 0.00 0.00 86 1018.1
20260902023043 75 0 0.0 1.0 0.00 0.00 0.00 86 1018.0
20260902022920 75 181 0.0 0.0 0.00 0.00 0.00 86 1020.1
20260902022524 75 0 0.0 1.0 0.00 0.00 0.00 86 1018.0
20260902022029 75 0 0.0 1.0 0.00 0.00 0.00 86 1018.0
20260902021554 75 0 0.0 1.0 0.00 0.00 0.00 86 1018.0
20260902021027 75 0 0.0 0.0 0.00 0.00 0.00 85 1017.9
20260902020844 76 181 0.0 0.0 0.00 0.00 0.00 85 1020.0
20260902020523 75 0 0.0 0.0 0.00 0.00 0.00 85 1017.9
20260902020040 75 0 0.0 2.0 0.00 0.00 0.00 85 1017.9
20260902015908 76 181 0.0 0.0 0.00 0.00 0.00 85 1019.9
20260902015525 76 0 0.0 2.0 0.00 0.00 0.00 85 1017.8
20260902015024 76 181 0.0 2.0 0.00 0.00 0.00 85 1017.6
20260902014918 76 181 0.0 0.0 0.00 0.00 0.00 85 1019.7
20260902014542 76 0 0.0 1.0 0.00 0.00 0.00 85 1017.6
20260902014026 76 0 0.0 1.0 0.00 0.00 0.00 85 1017.6
20260902013925 77 181 0.0 0.0 0.00 0.00 0.00 85 1019.6
20260902013524 76 0 0.0 1.0 0.00 0.00 0.00 84 1017.5
20260902013047 77 181 0.0 1.0 0.00 0.00 0.00 84 1017.4
20260902012904 77 181 0.0 0.0 0.00 0.00 0.00 84 1019.5
20260902012525 77 0 0.0 1.0 0.00 0.00 0.00 84 1017.4
20260902012025 77 0 0.0 1.0 0.00 0.00 0.00 84 1017.4
20260902011832 77 181 0.0 0.0 0.00 0.00 0.00 84 1019.4
20260902011546 77 0 0.0 1.0 0.00 0.00 0.00 84 1017.3
20260902011023 77 0 0.0 1.0 0.00 0.00 0.00 83 1017.3
20260902010523 77 0 0.0 1.0 0.00 0.00 0.00 83 1017.3
20260902010044 78 0 0.0 1.0 0.00 0.00 0.00 82 1017.2
20260902005640 78 181 0.0 0.0 0.00 0.00 0.00 82 1019.1
20260902005523 78 0 0.0 1.0 0.00 0.00 0.00 82 1017.1
20260902005024 78 181 0.0 1.0 0.00 0.00 0.00 82 1017.1
20260902004638 79 181 0.0 0.0 0.00 0.00 0.00 82 1018.9
20260902004552 78 0 0.0 1.0 0.00 0.00 0.00 82 1017.0
20260902004025 78 181 0.0 1.0 0.00 0.00 0.00 83 1017.0
20260902003525 79 181 0.0 1.0 0.00 0.00 0.00 82 1017.0
20260902003048 79 0 0.0 1.0 0.00 0.00 0.00 83 1017.0
20260902002523 79 0 0.0 1.0 0.00 0.00 0.00 81 1017.0
20260902002024 80 0 0.0 1.0 0.00 0.00 0.00 80 1017.0
20260902001541 80 181 0.0 1.0 0.00 0.00 0.00 79 1017.0
20260902001402 81 181 0.0 0.0 0.00 0.00 0.00 79 1019.0
20260902001032 81 0 0.0 1.0 0.00 0.00 0.00 78 1017.0
20260902000528 81 181 0.0 1.0 0.00 0.00 0.00 77 1016.9
20260902000421 82 181 0.0 0.0 0.00 0.00 0.00 77 1019.0
20260902000053 81 0 0.0 1.0 0.00 0.00 0.00 77 1017.0
20260901235525 82 181 0.0 1.0 0.00 0.00 0.00 78 1017.0
20260901235430 83 181 0.0 0.0 0.00 0.00 0.00 78 1019.0
20260901235025 82 0 0.0 1.0 0.00 0.00 0.00 78 1017.0
20260901234548 83 0 0.0 1.0 0.00 0.00 0.00 78 1016.9
20260901234422 83 181 0.0 0.0 0.00 0.00 0.00 77 1018.9
20260901234025 83 0 0.0 1.0 0.00 0.00 0.00 77 1017.0
20260901233523 84 181 0.0 1.0 0.00 0.00 0.00 76 1017.0
20260901233438 84 181 0.0 0.0 0.00 0.00 0.00 76 1019.0
20260901233043 84 0 0.0 1.0 0.00 0.00 0.00 75 1017.0
20260901232524 85 248 0.0 1.0 0.00 0.00 0.00 74 1017.2
20260901232027 85 0 0.0 1.0 0.00 0.00 0.00 72 1017.1
20260901231551 86 0 0.0 1.0 0.00 0.00 0.00 70 1017.2
20260901231230 86 248 0.0 0.0 0.00 0.00 0.00 69 1019.2
20260901231025 86 0 0.0 1.0 0.00 0.00 0.00 68 1017.3
20260901230525 87 0 0.0 1.0 0.00 0.00 0.00 67 1017.2
20260901230235 88 248 0.0 0.0 0.00 0.00 0.00 67 1019.2
20260901230053 87 0 0.0 2.0 0.00 0.00 0.00 66 1017.2
20260901225525 88 0 0.0 2.0 0.00 0.00 0.00 63 1017.3
20260901225208 89 248 0.0 0.0 0.00 0.00 0.00 63 1019.1
20260901225023 89 0 0.0 2.0 0.00 0.00 0.00 63 1017.2
20260901224545 89 0 0.0 2.0 0.00 0.00 0.00 63 1017.2
20260901224149 90 272 0.0 0.0 0.00 0.00 0.00 63 1019.2
20260901224023 89 0 0.0 2.0 0.00 0.00 0.00 62 1017.2
20260901223523 89 0 0.0 1.0 0.00 0.00 0.00 61 1017.2
20260901223140 90 314 0.0 0.0 0.00 0.00 0.00 60 1019.3
20260901223050 90 0 0.0 1.0 0.00 0.00 0.00 59 1017.4
20260901222525 91 0 0.0 1.0 0.00 0.00 0.00 57 1017.3
20260901222026 92 0 0.0 2.0 0.00 0.00 0.00 54 1017.2
20260901221547 93 0 0.0 2.0 0.00 0.00 0.00 52 1017.2
20260901221025 93 0 0.0 2.0 0.00 0.00 0.00 48 1017.1
20260901220959 94 345 0.0 2.0 0.00 0.00 0.00 48 1019.1
20260901220525 93 48 0.0 2.0 0.00 0.00 0.00 49 1017.2
20260901220047 93 322 1.0 2.0 0.00 0.00 0.00 49 1017.1
20260901215959 94 322 0.0 1.0 0.00 0.00 0.00 49 1019.1
20260901215527 94 15 0.0 3.0 0.00 0.00 0.00 47 1017.2
20260901215021 94 0 0.0 3.0 0.00 0.00 0.00 46 1017.2
20260901214552 94 0 1.0 3.0 0.00 0.00 0.00 46 1017.2
20260901214026 94 0 0.0 3.0 0.00 0.00 0.00 48 1017.2
20260901213837 94 318 0.0 2.0 0.00 0.00 0.00 47 1019.1
20260901213524 94 351 0.0 3.0 0.00 0.00 0.00 47 1017.1
20260901213110 94 327 1.0 4.0 0.00 0.00 0.00 47 1017.1
20260901212525 94 299 0.0 6.0 0.00 0.00 0.00 49 1017.1
20260901212027 94 244 1.0 6.0 0.00 0.00 0.00 50 1017.1
20260901211654 94 302 0.0 2.0 0.00 0.00 0.00 48 1019.1
20260901211546 93 0 0.0 5.0 0.00 0.00 0.00 49 1017.2
20260901211024 93 0 0.0 3.0 0.00 0.00 0.00 48 1017.2
20260901210523 94 339 1.0 3.0 0.00 0.00 0.00 45 1017.2
20260901210042 94 26 0.0 2.0 0.00 0.00 0.00 46 1017.3
20260901205525 94 334 0.0 3.0 0.00 0.00 0.00 46 1017.4
20260901205453 94 337 0.0 6.0 0.00 0.00 0.00 46 1019.4
20260901205026 94 339 0.0 8.0 0.00 0.00 0.00 44 1017.5
20260901204550 96 347 2.0 9.0 0.00 0.00 0.00 42 1017.4
20260901204457 96 347 2.0 6.0 0.00 0.00 0.00 41 1019.4
20260901204026 97 266 4.0 9.0 0.00 0.00 0.00 41 1017.3
20260901203525 97 253 1.0 6.0 0.00 0.00 0.00 41 1017.3
20260901203444 97 322 2.0 5.0 0.00 0.00 0.00 41 1019.3
20260901203046 97 260 3.0 6.0 0.00 0.00 0.00 44 1017.3
20260901202524 97 262 1.0 7.0 0.00 0.00 0.00 41 1017.3
20260901202447 97 303 1.0 7.0 0.00 0.00 0.00 41 1019.4
20260901202026 97 250 2.0 8.0 0.00 0.00 0.00 39 1017.4
20260901201541 97 34 3.0 8.0 0.00 0.00 0.00 39 1017.5
20260901201438 97 338 2.0 7.0 0.00 0.00 0.00 41 1019.5
20260901201018 96 157 2.0 7.0 0.00 0.00 0.00 40 1017.4
20260901200524 96 156 4.0 9.0 0.00 0.00 0.00 42 1017.5
20260901200501 96 162 3.0 6.0 0.00 0.00 0.00 42 1019.6
20260901200048 96 296 4.0 9.0 0.00 0.00 0.00 43 1017.5
20260901195524 96 240 1.0 6.0 0.00 0.00 0.00 43 1017.5
20260901195451 96 178 1.0 5.0 0.00 0.00 0.00 43 1019.7
20260901195023 96 58 1.0 7.0 0.00 0.00 0.00 42 1017.6
20260901194549 96 235 2.0 8.0 0.00 0.00 0.00 44 1017.7
20260901194503 96 256 2.0 7.0 0.00 0.00 0.00 44 1019.7
20260901194024 96 7 1.0 8.0 0.00 0.00 0.00 43 1017.6
20260901193524 96 204 2.0 8.0 0.00 0.00 0.00 43 1017.6
20260901193058 96 240 3.0 8.0 0.00 0.00 0.00 44 1017.7
20260901192524 96 297 3.0 9.0 0.00 0.00 0.00 45 1017.7
20260901192339 96 277 2.0 9.0 0.00 0.00 0.00 45 1019.8
20260901192025 96 279 3.0 9.0 0.00 0.00 0.00 45 1017.9
20260901191550 95 182 3.0 11.0 0.00 0.00 0.00 46 1017.9
20260901191027 95 288 2.0 11.0 0.00 0.00 0.00 45 1018.0
20260901190524 96 245 3.0 9.0 0.00 0.00 0.00 45 1018.0
20260901190211 96 355 1.0 4.0 0.00 0.00 0.00 43 1020.1
20260901190054 95 181 1.0 6.0 0.00 0.00 0.00 42 1018.0
20260901185522 95 16 2.0 6.0 0.00 0.00 0.00 44 1018.1
20260901185234 96 296 1.0 4.0 0.00 0.00 0.00 43 1020.2
20260901185023 96 273 2.0 5.0 0.00 0.00 0.00 46 1018.1
20260901184553 94 189 1.0 4.0 0.00 0.00 0.00 46 1018.2
20260901184257 95 116 1.0 6.0 0.00 0.00 0.00 46 1020.3
20260901184025 94 44 1.0 4.0 0.00 0.00 0.00 45 1018.2
20260901183525 93 273 1.0 3.0 0.00 0.00 0.00 50 1018.2
20260901183053 92 278 0.0 7.0 0.00 0.00 0.00 49 1018.3
20260901182525 94 289 2.0 7.0 0.00 0.00 0.00 48 1018.3
20260901182131 95 321 1.0 4.0 0.00 0.00 0.00 46 1020.4
20260901182026 94 164 2.0 5.0 0.00 0.00 0.00 49 1018.3
20260901181547 93 230 2.0 4.0 0.00 0.00 0.00 49 1018.4
20260901181025 91 6 1.0 3.0 0.00 0.00 0.00 52 1018.4
20260901180526 92 24 0.0 6.0 0.00 0.00 0.00 51 1018.5
20260901180046 93 343 2.0 8.0 0.00 0.00 0.00 49 1018.5
20260901175525 93 257 3.0 8.0 0.00 0.00 0.00 48 1018.4
20260901175024 93 269 1.0 6.0 0.00 0.00 0.00 50 1018.5
20260901174934 93 305 1.0 5.0 0.00 0.00 0.00 49 1020.6
20260901174550 94 315 1.0 6.0 0.00 0.00 0.00 48 1018.5
20260901174024 94 203 1.0 6.0 0.00 0.00 0.00 48 1018.4
20260901173954 95 111 2.0 7.0 0.00 0.00 0.00 48 1020.5
20260901173527 94 359 2.0 7.0 0.00 0.00 0.00 48 1018.5
20260901173049 94 289 4.0 8.0 0.00 0.00 0.00 47 1018.6
20260901172949 95 245 3.0 7.0 0.00 0.00 0.00 47 1020.6
20260901172528 94 47 4.0 8.0 0.00 0.00 0.00 48 1018.6
20260901172025 94 0 1.0 8.0 0.00 0.00 0.00 49 1018.6
20260901171603 94 215 2.0 8.0 0.00 0.00 0.00 48 1018.5
20260901171022 94 218 3.0 9.0 0.00 0.00 0.00 48 1018.6
20260901170826 95 353 2.0 7.0 0.00 0.00 0.00 47 1020.6
20260901170524 94 22 2.0 9.0 0.00 0.00 0.00 49 1018.6
20260901170104 93 211 4.0 9.0 0.00 0.00 0.00 49 1018.7
20260901165831 93 148 2.0 7.0 0.00 0.00 0.00 48 1020.7
20260901165524 93 304 3.0 7.0 0.00 0.00 0.00 48 1018.9
20260901165026 93 210 3.0 9.0 0.00 0.00 0.00 48 1018.9
20260901164831 93 250 3.0 9.0 0.00 0.00 0.00 50 1021.0
20260901164556 93 243 3.0 10.0 0.00 0.00 0.00 49 1019.1
20260901164028 93 252 6.0 10.0 0.00 0.00 0.00 49 1019.0
20260901163832 93 246 1.0 9.0 0.00 0.00 0.00 49 1021.0
20260901163525 92 183 1.0 3.0 0.00 0.00 0.00 53 1019.1
20260901163046 92 189 1.0 9.0 0.00 0.00 0.00 49 1019.1
20260901162827 92 41 3.0 9.0 0.00 0.00 0.00 48 1021.2
20260901162525 93 0 4.0 10.0 0.00 0.00 0.00 48 1019.3
20260901162023 92 259 6.0 10.0 0.00 0.00 0.00 52 1019.3
20260901161544 92 228 1.0 8.0 0.00 0.00 0.00 51 1019.3
20260901161023 91 357 1.0 8.0 0.00 0.00 0.00 54 1019.4
20260901160735 92 307 2.0 7.0 0.00 0.00 0.00 54 1021.5
20260901160525 92 245 2.0 8.0 0.00 0.00 0.00 53 1019.4
20260901160049 91 251 1.0 6.0 0.00 0.00 0.00 56 1019.5
20260901155732 91 44 2.0 7.0 0.00 0.00 0.00 54 1021.5
20260901155524 91 239 1.0 9.0 0.00 0.00 0.00 55 1019.5
20260901155023 91 357 3.0 9.0 0.00 0.00 0.00 56 1019.6
20260901154552 91 210 2.0 5.0 0.00 0.00 0.00 58 1019.5
20260901154024 90 276 1.0 7.0 0.00 0.00 0.00 56 1019.7
20260901153604 90 341 1.0 8.0 0.00 0.00 0.00 56 1021.7
20260901153527 90 357 2.0 10.0 0.00 0.00 0.00 56 1019.7
20260901153056 90 139 2.0 10.0 0.00 0.00 0.00 55 1019.9
20260901152624 90 296 2.0 7.0 0.00 0.00 0.00 57 1021.9
20260901152525 89 110 1.0 8.0 0.00 0.00 0.00 58 1019.9
20260901152025 89 328 2.0 8.0 0.00 0.00 0.00 58 1019.9
20260901151614 90 248 1.0 5.0 0.00 0.00 0.00 61 1022.0
20260901151547 89 232 1.0 5.0 0.00 0.00 0.00 63 1019.9
20260901151029 89 17 1.0 6.0 0.00 0.00 0.00 62 1019.9
20260901150621 88 348 1.0 6.0 0.00 0.00 0.00 63 1022.1
20260901150525 88 25 0.0 6.0 0.00 0.00 0.00 62 1020.0
20260901150049 87 208 1.0 8.0 0.00 0.00 0.00 64 1020.1
20260901145614 87 224 1.0 6.0 0.00 0.00 0.00 65 1022.1
20260901145530 87 275 1.0 8.0 0.00 0.00 0.00 64 1020.1
20260901145028 87 242 1.0 4.0 0.00 0.00 0.00 64 1020.2
20260901144553 86 353 1.0 2.0 0.00 0.00 0.00 66 1020.2
20260901144543 87 303 0.0 1.0 0.00 0.00 0.00 66 1022.2
20260901144025 85 353 0.0 3.0 0.00 0.00 0.00 68 1020.2
20260901143527 85 5 1.0 4.0 0.00 0.00 0.00 68 1020.2
20260901143522 86 8 0.0 2.0 0.00 0.00 0.00 68 1022.2
20260901143054 85 0 1.0 4.0 0.00 0.00 0.00 70 1020.3
20260901142531 84 197 0.0 3.0 0.00 0.00 0.00 71 1020.3
20260901142025 84 8 1.0 3.0 0.00 0.00 0.00 70 1020.2
20260901141547 84 0 1.0 2.0 0.00 0.00 0.00 73 1020.2
20260901141404 84 341 0.0 1.0 0.00 0.00 0.00 72 1022.2
20260901141024 84 4 0.0 2.0 0.00 0.00 0.00 73 1020.1
20260901140523 83 43 0.0 2.0 0.00 0.00 0.00 73 1020.1
20260901140352 83 357 0.0 1.0 0.00 0.00 0.00 73 1022.1
20260901140042 83 0 0.0 2.0 0.00 0.00 0.00 75 1020.0
20260901135525 83 0 0.0 2.0 0.00 0.00 0.00 75 1020.0
20260901135330 83 359 0.0 1.0 0.00 0.00 0.00 75 1022.1
20260901135024 82 0 0.0 2.0 0.00 0.00 0.00 76 1020.0
20260901134616 82 0 0.0 2.0 0.00 0.00 0.00 78 1020.1
20260901134318 82 117 0.0 1.0 0.00 0.00 0.00 77 1022.0
20260901134027 81 100 0.0 3.0 0.00 0.00 0.00 79 1020.1
20260901133525 81 2 1.0 3.0 0.00 0.00 0.00 78 1020.2
20260901133326 81 350 0.0 1.0 0.00 0.00 0.00 79 1022.2
20260901133057 80 0 0.0 2.0 0.00 0.00 0.00 80 1020.2
20260901132524 80 0 0.0 1.0 0.00 0.00 0.00 80 1020.1
20260901132024 79 0 0.0 1.0 0.00 0.00 0.00 81 1020.0
20260901131543 79 324 0.0 2.0 0.00 0.00 0.00 82 1020.1
20260901131143 79 324 0.0 1.0 0.00 0.00 0.00 82 1022.0
20260901131023 78 0 0.0 2.0 0.00 0.00 0.00 83 1020.0
20260901130525 78 0 0.0 2.0 0.00 0.00 0.00 85 1020.1
20260901130157 78 346 0.0 1.0 0.00 0.00 0.00 86 1022.1
20260901130045 78 179 0.0 2.0 0.00 0.00 0.00 86 1020.0
20260901125523 77 0 0.0 2.0 0.00 0.00 0.00 87 1020.1
20260901125145 77 311 0.0 0.0 0.00 0.00 0.00 88 1022.2
20260901125024 76 0 0.0 1.0 0.00 0.00 0.00 88 1020.1
20260901124555 75 0 0.0 1.0 0.00 0.00 0.00 88 1020.1
20260901124024 74 0 0.0 0.0 0.00 0.00 0.00 88 1020.1
20260901123526 74 0 0.0 0.0 0.00 0.00 0.00 88 1020.0
20260901123113 73 0 0.0 0.0 0.00 0.00 0.00 88 1020.0
20260901123025 73 224 0.0 0.0 0.00 0.00 0.00 88 1022.1
20260901122524 72 0 0.0 0.0 0.00 0.00 0.00 88 1020.0
20260901122022 72 0 0.0 0.0 0.00 0.00 0.00 88 1019.9
20260901121950 72 224 0.0 0.0 0.00 0.00 0.00 88 1022.0
20260901121547 72 0 0.0 0.0 0.00 0.00 0.00 88 1019.8
20260901121025 71 0 0.0 0.0 0.00 0.00 0.00 88 1019.9
20260901120942 72 224 0.0 0.0 0.00 0.00 0.00 88 1021.9
20260901120524 71 0 0.0 0.0 0.00 0.00 0.00 88 1019.9
20260901120053 71 0 0.0 0.0 0.00 0.00 0.00 88 1019.9
20260901115912 71 224 0.0 0.0 0.00 0.00 0.00 88 1021.9
20260901115524 71 0 0.0 0.0 0.00 0.00 0.00 88 1019.8
20260901115027 70 0 0.0 0.0 0.00 0.00 0.00 88 1019.7
20260901114858 71 224 0.0 0.0 0.00 0.00 0.00 88 1021.8
20260901114558 70 0 0.0 0.0 0.00 0.00 0.00 88 1019.7
20260901114024 69 0 0.0 0.0 0.00 0.00 0.00 88 1019.7
20260901113920 70 224 0.0 0.0 0.00 0.00 0.00 88 1021.6
20260901113525 69 0 0.0 0.0 0.00 0.00 0.00 88 1019.6
20260901113047 69 0 0.0 0.0 0.00 0.00 0.00 88 1019.5
20260901112923 69 224 0.0 0.0 0.00 0.00 0.00 88 1021.6
20260901112522 69 0 0.0 0.0 0.00 0.00 0.00 88 1019.5
20260901112027 69 0 0.0 0.0 0.00 0.00 0.00 88 1019.3
20260901111931 69 224 0.0 0.0 0.00 0.00 0.00 88 1021.3
20260901111547 69 0 0.0 0.0 0.00 0.00 0.00 88 1019.4
20260901111024 69 0 0.0 0.0 0.00 0.00 0.00 88 1019.4
20260901110524 69 0 0.0 0.0 0.00 0.00 0.00 88 1019.3
20260901110054 69 0 0.0 0.0 0.00 0.00 0.00 88 1019.2
20260901105525 69 0 0.0 0.0 0.00 0.00 0.00 88 1019.1
20260901105026 69 0 0.0 0.0 0.00 0.00 0.00 88 1019.1
20260901104551 69 224 0.0 0.0 0.00 0.00 0.00 88 1021.1
20260901104548 69 0 0.0 0.0 0.00 0.00 0.00 88 1019.1
20260901104024 69 0 0.0 0.0 0.00 0.00 0.00 88 1019.0
20260901103535 69 224 0.0 0.0 0.00 0.00 0.00 88 1021.0
20260901103524 69 0 0.0 0.0 0.00 0.00 0.00 88 1019.0
20260901103042 69 0 0.0 0.0 0.00 0.00 0.00 88 1018.9
20260901102529 69 0 0.0 0.0 0.00 0.00 0.00 88 1019.0
20260901102505 69 224 0.0 0.0 0.00 0.00 0.00 88 1020.9
20260901102025 68 0 0.0 0.0 0.00 0.00 0.00 88 1018.9
20260901101549 68 0 0.0 0.0 0.00 0.00 0.00 88 1018.8
20260901101027 68 0 0.0 0.0 0.00 0.00 0.00 88 1018.8
20260901100527 68 0 0.0 0.0 0.00 0.00 0.00 88 1018.9
20260901100345 69 224 0.0 0.0 0.00 0.00 0.00 88 1020.8
20260901100049 69 0 0.0 0.0 0.00 0.00 0.00 88 1018.9
20260901095524 68 0 0.0 0.0 0.00 0.00 0.00 88 1018.8
20260901095330 69 224 0.0 0.0 0.00 0.00 0.00 88 1020.9
20260901095024 68 0 0.0 0.0 0.00 0.00 0.00 88 1018.8
20260901094543 68 0 0.0 0.0 0.00 0.00 0.00 88 1018.9
20260901094349 69 224 0.0 0.0 0.00 0.00 0.00 88 1020.9
20260901094026 69 0 0.0 0.0 0.00 0.00 0.00 88 1018.9
20260901093525 69 0 0.0 0.0 0.00 0.00 0.00 88 1019.0
20260901093043 69 0 0.0 0.0 0.00 0.00 0.00 88 1018.9
20260901092524 69 0 0.0 0.0 0.00 0.00 0.00 88 1018.9
20260901092249 69 224 0.0 0.0 0.00 0.00 0.00 88 1020.9
20260901092027 68 0 0.0 0.0 0.00 0.00 0.00 88 1018.8
20260901091556 69 0 0.0 0.0 0.00 0.00 0.00 88 1018.8
20260901091253 69 224 0.0 0.0 0.00 0.00 0.00 88 1020.8
20260901091028 69 0 0.0 0.0 0.00 0.00 0.00 88 1018.7
20260901090524 69 0 0.0 0.0 0.00 0.00 0.00 88 1018.7
20260901090225 69 224 0.0 0.0 0.00 0.00 0.00 88 1020.7
20260901090050 69 0 0.0 0.0 0.00 0.00 0.00 88 1018.7
20260901085525 69 0 0.0 0.0 0.00 0.00 0.00 88 1018.8
20260901085236 70 224 0.0 0.0 0.00 0.00 0.00 88 1020.8
20260901085025 69 0 0.0 0.0 0.00 0.00 0.00 88 1018.8
20260901084543 69 0 0.0 0.0 0.00 0.00 0.00 88 1018.8
20260901084210 70 224 0.0 0.0 0.00 0.00 0.00 88 1020.8
20260901084024 69 0 0.0 0.0 0.00 0.00 0.00 88 1018.7
20260901083527 69 0 0.0 0.0 0.00 0.00 0.00 88 1018.8
20260901083205 69 224 0.0 0.0 0.00 0.00 0.00 88 1020.9
20260901083053 69 0 0.0 0.0 0.00 0.00 0.00 88 1018.8
20260901082525 69 0 0.0 0.0 0.00 0.00 0.00 88 1018.9
20260901082228 70 224 0.0 0.0 0.00 0.00 0.00 88 1020.9
20260901082025 69 0 0.0 0.0 0.00 0.00 0.00 88 1018.8
20260901081550 69 0 0.0 0.0 0.00 0.00 0.00 88 1018.8
20260901081157 70 224 0.0 0.0 0.00 0.00 0.00 88 1020.8
20260901081025 69 0 0.0 0.0 0.00 0.00 0.00 88 1018.8
20260901080528 69 0 0.0 0.0 0.00 0.00 0.00 88 1018.8
20260901080223 70 224 0.0 0.0 0.00 0.00 0.00 88 1020.8
20260901080053 69 0 0.0 0.0 0.00 0.00 0.00 88 1018.8
20260901075525 69 0 0.0 0.0 0.00 0.00 0.00 88 1018.9
20260901075218 70 224 0.0 0.0 0.00 0.00 0.00 88 1020.9
20260901075025 69 0 0.0 0.0 0.00 0.00 0.00 88 1018.9
20260901074557 70 0 0.0 0.0 0.00 0.00 0.00 88 1019.0
20260901074159 70 224 0.0 0.0 0.00 0.00 0.00 88 1021.0
20260901074026 70 0 0.0 0.0 0.00 0.00 0.00 88 1019.0
20260901073524 70 0 0.0 0.0 0.00 0.00 0.00 88 1019.1
20260901073135 70 224 0.0 0.0 0.00 0.00 0.00 88 1021.2
20260901073042 70 0 0.0 0.0 0.00 0.00 0.00 88 1019.2
20260901072524 70 0 0.0 0.0 0.00 0.00 0.00 88 1019.2
20260901072024 69 0 0.0 0.0 0.00 0.00 0.00 88 1019.2
20260901071550 70 0 0.0 0.0 0.00 0.00 0.00 88 1019.2
20260901071022 70 0 0.0 0.0 0.00 0.00 0.00 88 1019.2
20260901070927 71 224 0.0 0.0 0.00 0.00 0.00 88 1021.3
20260901070526 70 0 0.0 0.0 0.00 0.00 0.00 88 1019.4
20260901070047 70 0 0.0 0.0 0.00 0.00 0.00 88 1019.3
20260901065523 70 0 0.0 0.0 0.00 0.00 0.00 88 1019.4
20260901065021 70 0 0.0 0.0 0.00 0.00 0.00 88 1019.3
20260901064800 71 224 0.0 0.0 0.00 0.00 0.00 88 1021.3
20260901064543 71 0 0.0 0.0 0.00 0.00 0.00 88 1019.3
20260901064025 70 0 0.0 0.0 0.00 0.00 0.00 88 1019.4
20260901063756 71 224 0.0 0.0 0.00 0.00 0.00 88 1021.5
20260901063523 70 0 0.0 0.0 0.00 0.00 0.00 88 1019.5
20260901063044 70 0 0.0 0.0 0.00 0.00 0.00 88 1019.4
20260901062755 71 224 0.0 0.0 0.00 0.00 0.00 88 1021.5
20260901062529 70 0 0.0 0.0 0.00 0.00 0.00 88 1019.5
20260901062025 70 0 0.0 0.0 0.00 0.00 0.00 88 1019.5
20260901061732 71 224 0.0 0.0 0.00 0.00 0.00 88 1021.5
20260901061551 70 0 0.0 0.0 0.00 0.00 0.00 88 1019.4
20260901061025 70 0 0.0 0.0 0.00 0.00 0.00 88 1019.4
20260901060746 71 224 0.0 0.0 0.00 0.00 0.00 88 1021.4
20260901060525 70 0 0.0 0.0 0.00 0.00 0.00 88 1019.4
20260901060047 71 0 0.0 0.0 0.00 0.00 0.00 88 1019.4
20260901055755 71 224 0.0 0.0 0.00 0.00 0.00 88 1021.5
20260901055524 71 0 0.0 0.0 0.00 0.00 0.00 88 1019.5
20260901055028 71 0 0.0 0.0 0.00 0.00 0.00 88 1019.6
20260901054753 71 224 0.0 0.0 0.00 0.00 0.00 88 1021.5
20260901054551 71 0 0.0 0.0 0.00 0.00 0.00 88 1019.6
20260901054026 70 0 0.0 0.0 0.00 0.00 0.00 88 1019.5
20260901053810 71 224 0.0 0.0 0.00 0.00 0.00 88 1021.6
20260901053526 71 0 0.0 0.0 0.00 0.00 0.00 88 1019.6
20260901053052 71 0 0.0 0.0 0.00 0.00 0.00 88 1019.7
20260901052739 72 224 0.0 0.0 0.00 0.00 0.00 88 1021.7
20260901052527 71 0 0.0 0.0 0.00 0.00 0.00 88 1019.7
20260901052028 71 0 0.0 0.0 0.00 0.00 0.00 88 1019.7
20260901051747 72 224 0.0 0.0 0.00 0.00 0.00 88 1021.6
20260901051541 71 0 0.0 0.0 0.00 0.00 0.00 88 1019.7
20260901051029 71 0 0.0 0.0 0.00 0.00 0.00 88 1019.6
20260901050525 71 0 0.0 0.0 0.00 0.00 0.00 88 1019.5
20260901050052 71 0 0.0 0.0 0.00 0.00 0.00 88 1019.5
20260901045554 72 224 0.0 0.0 0.00 0.00 0.00 88 1021.4
20260901045522 71 0 0.0 0.0 0.00 0.00 0.00 88 1019.4
20260901045025 71 0 0.0 0.0 0.00 0.00 0.00 88 1019.5
20260901044614 72 224 0.0 0.0 0.00 0.00 0.00 88 1021.5
20260901044555 71 0 0.0 0.0 0.00 0.00 0.00 88 1019.5
20260901044025 71 0 0.0 0.0 0.00 0.00 0.00 88 1019.4
20260901043554 72 224 0.0 0.0 0.00 0.00 0.00 88 1021.5
20260901043525 71 0 0.0 0.0 0.00 0.00 0.00 88 1019.4
20260901043047 71 0 0.0 0.0 0.00 0.00 0.00 88 1019.5
20260901042538 72 224 0.0 0.0 0.00 0.00 0.00 88 1021.4
20260901042525 71 0 0.0 0.0 0.00 0.00 0.00 88 1019.4
20260901042025 72 0 0.0 0.0 0.00 0.00 0.00 88 1019.5
20260901041552 72 0 0.0 0.0 0.00 0.00 0.00 88 1019.5
20260901041509 72 224 0.0 0.0 0.00 0.00 0.00 88 1021.6
20260901041024 72 0 0.0 0.0 0.00 0.00 0.00 88 1019.6
20260901040525 72 0 0.0 0.0 0.00 0.00 0.00 87 1019.5
20260901040513 72 224 0.0 0.0 0.00 0.00 0.00 87 1021.5
20260901040110 72 0 0.0 0.0 0.00 0.00 0.00 87 1019.5
20260901035525 72 0 0.0 0.0 0.00 0.00 0.00 87 1019.5
20260901035509 72 224 0.0 0.0 0.00 0.00 0.00 87 1021.5
20260901035027 72 0 0.0 0.0 0.00 0.00 0.00 87 1019.4
20260901034551 72 0 0.0 0.0 0.00 0.00 0.00 87 1019.4
20260901034522 72 224 0.0 0.0 0.00 0.00 0.00 87 1021.4
20260901034022 72 0 0.0 0.0 0.00 0.00 0.00 88 1019.5
20260901033528 72 224 0.0 0.0 0.00 0.00 0.00 87 1021.4
20260901033524 72 0 0.0 0.0 0.00 0.00 0.00 87 1019.4
20260901033056 72 0 0.0 0.0 0.00 0.00 0.00 87 1019.5
20260901032528 72 224 0.0 0.0 0.00 0.00 0.00 87 1021.6
20260901032525 72 0 0.0 0.0 0.00 0.00 0.00 87 1019.6
20260901032025 72 0 0.0 0.0 0.00 0.00 0.00 87 1019.5
20260901031545 73 0 0.0 0.0 0.00 0.00 0.00 87 1019.6
20260901031524 73 224 0.0 0.0 0.00 0.00 0.00 87 1021.6
20260901031023 73 0 0.0 0.0 0.00 0.00 0.00 87 1019.6
20260901030543 73 224 0.0 0.0 0.00 0.00 0.00 87 1021.6
20260901030523 73 0 0.0 0.0 0.00 0.00 0.00 87 1019.5
20260901030042 73 0 0.0 0.0 0.00 0.00 0.00 87 1019.5
20260901025528 73 0 0.0 0.0 0.00 0.00 0.00 87 1019.5
20260901025510 73 224 0.0 0.0 0.00 0.00 0.00 87 1021.6
20260901025028 73 0 0.0 0.0 0.00 0.00 0.00 87 1019.5
20260901024551 73 0 0.0 0.0 0.00 0.00 0.00 87 1019.5
20260901024511 73 224 0.0 0.0 0.00 0.00 0.00 87 1021.5